Time,TemperatureF,DewpointF,PressureIn,WindDirection,WindDirectionDegrees,WindSpeedMPH,WindSpeedGustMPH,Humidity,HourlyPrecipIn,Conditions,Clouds,dailyrainin,SoftwareType,DateUTC
2013-02-05 00:00:00,37.6,11.6,29.81,WSW,248,0.9,2.5,34,0.00,,,0.00,WUHU216HW,2013-02-05 07:00:00,
2013-02-05 00:05:00,37.8,11.7,29.81,SSW,203,0.7,2.5,34,0.00,,,0.00,WUHU216HW,2013-02-05 07:05:00,
2013-02-05 00:10:00,38.3,11.6,29.81,South,180,2.2,4.0,33,0.00,,,0.00,WUHU216HW,2013-02-05 07:10:00,
2013-02-05 00:15:00,38.5,11.7,29.80,SSE,158,3.4,4.0,33,0.00,,,0.00,WUHU216HW,2013-02-05 07:15:00,
2013-02-05 00:20:00,39.2,12.4,29.80,SSE,158,4.7,10.5,33,0.00,,,0.00,WUHU216HW,2013-02-05 07:20:00,
2013-02-05 00:25:00,40.0,12.4,29.80,South,180,3.8,10.5,32,0.00,,,0.00,WUHU216HW,2013-02-05 07:25:00,
2013-02-05 00:30:00,40.7,13.1,29.80,SSE,158,4.0,5.4,32,0.00,,,0.00,WUHU216HW,2013-02-05 07:30:00,
2013-02-05 00:35:00,41.0,12.7,29.80,South,180,4.7,5.1,31,0.00,,,0.00,WUHU216HW,2013-02-05 07:35:00,
2013-02-05 00:40:00,41.2,12.9,29.80,SSE,158,0.4,7.4,31,0.00,,,0.00,WUHU216HW,2013-02-05 07:40:00,
2013-02-05 00:45:00,41.4,13.0,29.79,SE,135,1.8,7.4,31,0.00,,,0.00,WUHU216HW,2013-02-05 07:45:00,
2013-02-05 00:50:00,41.4,13.0,29.79,SW,225,1.1,4.3,31,0.00,,,0.00,WUHU216HW,2013-02-05 07:50:00,
2013-02-05 00:55:00,41.4,13.0,29.79,West,270,2.7,4.3,31,0.00,,,0.00,WUHU216HW,2013-02-05 07:55:00,
2013-02-05 01:00:00,41.4,13.0,29.79,WSW,248,4.9,4.9,31,0.00,,,0.00,WUHU216HW,2013-02-05 08:00:00,
2013-02-05 01:05:00,41.4,13.0,29.79,SSW,203,1.3,4.9,31,0.00,,,0.00,WUHU216HW,2013-02-05 08:05:00,
2013-02-05 01:10:00,41.8,12.6,29.79,WSW,248,1.8,6.3,30,0.00,,,0.00,WUHU216HW,2013-02-05 08:10:00,
2013-02-05 01:15:00,41.8,12.6,29.79,WSW,248,3.6,6.3,30,0.00,,,0.00,WUHU216HW,2013-02-05 08:15:00,
2013-02-05 01:20:00,41.8,12.6,29.79,West,270,3.1,3.6,30,0.00,,,0.00,WUHU216HW,2013-02-05 08:20:00,
2013-02-05 01:25:00,42.1,13.0,29.78,WSW,248,8.3,8.3,30,0.00,,,0.00,WUHU216HW,2013-02-05 08:25:00,
2013-02-05 01:30:00,42.5,12.3,29.78,WSW,248,11.4,11.4,29,0.00,,,0.00,WUHU216HW,2013-02-05 08:30:00,
2013-02-05 01:35:00,42.5,12.3,29.79,SE,135,3.8,11.4,29,0.00,,,0.00,WUHU216HW,2013-02-05 08:35:00,
2013-02-05 01:40:00,42.5,12.3,29.78,ESE,113,2.5,11.4,29,0.00,,,0.00,WUHU216HW,2013-02-05 08:40:00,
2013-02-05 01:45:00,42.5,12.3,29.79,ESE,113,3.6,11.4,29,0.00,,,0.00,WUHU216HW,2013-02-05 08:45:00,
2013-02-05 01:50:00,42.5,12.3,29.79,SSW,203,8.1,8.9,29,0.00,,,0.00,WUHU216HW,2013-02-05 08:50:00,
2013-02-05 01:55:00,42.7,12.4,29.79,West,270,6.9,10.1,29,0.00,,,0.00,WUHU216HW,2013-02-05 08:55:00,
2013-02-05 02:00:00,42.7,12.4,29.79,NW,315,5.4,10.1,29,0.00,,,0.00,WUHU216HW,2013-02-05 09:00:00,
2013-02-05 02:05:00,42.8,12.6,29.79,SSE,158,4.7,10.7,29,0.00,,,0.00,WUHU216HW,2013-02-05 09:05:00,
2013-02-05 02:10:00,42.8,12.6,29.79,WSW,248,8.7,10.7,29,0.00,,,0.00,WUHU216HW,2013-02-05 09:10:00,
2013-02-05 02:15:00,42.8,12.6,29.80,West,270,3.1,8.7,29,0.00,,,0.00,WUHU216HW,2013-02-05 09:15:00,
2013-02-05 02:20:00,42.8,12.6,29.79,West,270,1.1,7.6,29,0.00,,,0.00,WUHU216HW,2013-02-05 09:20:00,
2013-02-05 02:25:00,42.8,12.6,29.80,West,270,0.2,5.4,29,0.00,,,0.00,WUHU216HW,2013-02-05 09:25:00,
2013-02-05 02:30:00,42.5,12.3,29.80,North,0,2.2,5.4,29,0.00,,,0.00,WUHU216HW,2013-02-05 09:30:00,
2013-02-05 02:35:00,42.5,12.3,29.80,WNW,293,0.7,3.6,29,0.00,,,0.00,WUHU216HW,2013-02-05 09:35:00,
2013-02-05 02:40:00,41.9,11.9,29.80,SW,225,0.4,4.0,29,0.00,,,0.00,WUHU216HW,2013-02-05 09:40:00,
2013-02-05 02:45:00,41.4,12.3,29.80,NNW,338,1.3,4.0,30,0.00,,,0.00,WUHU216HW,2013-02-05 09:45:00,
2013-02-05 02:50:00,41.0,12.1,29.80,WSW,248,0.7,2.5,30,0.00,,,0.00,WUHU216HW,2013-02-05 09:50:00,
2013-02-05 02:55:00,41.2,12.9,29.81,North,0,0.9,4.7,31,0.00,,,0.00,WUHU216HW,2013-02-05 09:55:00,
2013-02-05 03:00:00,41.4,13.0,29.81,East,90,0.2,4.7,31,0.00,,,0.00,WUHU216HW,2013-02-05 10:00:00,
2013-02-05 03:05:00,41.2,12.9,29.81,East,90,1.1,3.4,31,0.00,,,0.00,WUHU216HW,2013-02-05 10:05:00,
2013-02-05 03:10:00,41.0,12.7,29.81,SE,135,1.6,3.4,31,0.00,,,0.00,WUHU216HW,2013-02-05 10:10:00,
2013-02-05 03:15:00,41.0,12.7,29.81,SE,135,2.2,4.0,31,0.00,,,0.00,WUHU216HW,2013-02-05 10:15:00,
2013-02-05 03:20:00,40.7,13.1,29.81,SSE,158,3.1,4.5,32,0.00,,,0.00,WUHU216HW,2013-02-05 10:20:00,
2013-02-05 03:25:00,40.9,13.2,29.81,SE,135,1.3,4.5,32,0.00,,,0.00,WUHU216HW,2013-02-05 10:25:00,
2013-02-05 03:30:00,40.7,13.1,29.81,South,180,2.9,9.2,32,0.00,,,0.00,WUHU216HW,2013-02-05 10:30:00,
2013-02-05 03:35:00,40.7,13.1,29.81,South,180,2.5,9.2,32,0.00,,,0.00,WUHU216HW,2013-02-05 10:35:00,
2013-02-05 03:40:00,40.7,13.1,29.81,SSE,158,1.3,3.8,32,0.00,,,0.00,WUHU216HW,2013-02-05 10:40:00,
2013-02-05 03:45:00,40.3,12.7,29.82,SSW,203,2.5,2.9,32,0.00,,,0.00,WUHU216HW,2013-02-05 10:45:00,
2013-02-05 03:50:00,40.3,12.7,29.81,SSW,203,2.7,7.6,32,0.00,,,0.00,WUHU216HW,2013-02-05 10:50:00,
2013-02-05 03:55:00,40.7,13.1,29.81,SW,225,2.0,8.5,32,0.00,,,0.00,WUHU216HW,2013-02-05 10:55:00,
2013-02-05 04:00:00,40.9,12.5,29.81,South,180,3.8,8.5,31,0.00,,,0.00,WUHU216HW,2013-02-05 11:00:00,
2013-02-05 04:05:00,41.0,12.7,29.82,SSW,203,1.3,5.4,31,0.00,,,0.00,WUHU216HW,2013-02-05 11:05:00,
2013-02-05 04:10:00,41.2,12.9,29.82,NW,315,1.3,3.6,31,0.00,,,0.00,WUHU216HW,2013-02-05 11:10:00,
2013-02-05 04:15:00,41.6,12.5,29.82,SSE,158,1.6,4.7,30,0.00,,,0.00,WUHU216HW,2013-02-05 11:15:00,
2013-02-05 04:20:00,41.9,11.9,29.82,NNE,23,8.7,8.7,29,0.00,,,0.00,WUHU216HW,2013-02-05 11:20:00,
2013-02-05 04:25:00,41.6,12.5,29.82,NNE,23,1.8,8.7,30,0.00,,,0.00,WUHU216HW,2013-02-05 11:25:00,
2013-02-05 04:30:00,41.2,12.3,29.83,North,0,2.5,4.0,30,0.00,,,0.00,WUHU216HW,2013-02-05 11:30:00,
2013-02-05 04:35:00,40.7,11.7,29.83,ESE,113,1.6,2.5,30,0.00,,,0.00,WUHU216HW,2013-02-05 11:35:00,
2013-02-05 04:40:00,40.0,11.7,29.83,NW,315,1.1,1.8,31,0.00,,,0.00,WUHU216HW,2013-02-05 11:40:00,
2013-02-05 04:45:00,39.2,11.1,29.84,WSW,248,1.1,1.8,31,0.00,,,0.00,WUHU216HW,2013-02-05 11:45:00,
2013-02-05 04:50:00,38.9,11.4,29.84,SSW,203,0.4,1.8,32,0.00,,,0.00,WUHU216HW,2013-02-05 11:50:00,
2013-02-05 04:55:00,38.5,11.1,29.84,West,270,1.1,1.1,32,0.00,,,0.00,WUHU216HW,2013-02-05 11:55:00,
2013-02-05 05:00:00,38.0,10.6,29.84,WNW,293,0.9,1.8,32,0.00,,,0.00,WUHU216HW,2013-02-05 12:00:00,
2013-02-05 05:05:00,37.8,10.4,29.84,WNW,293,0.0,1.8,32,0.00,,,0.00,WUHU216HW,2013-02-05 12:05:00,
2013-02-05 05:10:00,37.6,10.9,29.85,SSW,203,1.1,2.2,33,0.00,,,0.00,WUHU216HW,2013-02-05 12:10:00,
2013-02-05 05:15:00,37.3,10.6,29.85,WSW,248,1.1,2.2,33,0.00,,,0.00,WUHU216HW,2013-02-05 12:15:00,
2013-02-05 05:20:00,36.9,10.3,29.85,SW,225,0.4,2.0,33,0.00,,,0.00,WUHU216HW,2013-02-05 12:20:00,
2013-02-05 05:25:00,36.4,9.8,29.85,WSW,248,1.1,1.1,33,0.00,,,0.00,WUHU216HW,2013-02-05 12:25:00,
2013-02-05 05:30:00,35.8,10.0,29.85,WSW,248,0.0,1.1,34,0.00,,,0.00,WUHU216HW,2013-02-05 12:30:00,
2013-02-05 05:35:00,35.3,10.2,29.86,SW,225,0.2,0.7,35,0.00,,,0.00,WUHU216HW,2013-02-05 12:35:00,
2013-02-05 05:40:00,34.7,9.7,29.86,WSW,248,1.8,1.8,35,0.00,,,0.00,WUHU216HW,2013-02-05 12:40:00,
2013-02-05 05:45:00,34.2,9.2,29.86,SSE,158,0.7,1.8,35,0.00,,,0.00,WUHU216HW,2013-02-05 12:45:00,
2013-02-05 05:50:00,33.8,9.5,29.86,SW,225,0.0,1.1,36,0.00,,,0.00,WUHU216HW,2013-02-05 12:50:00,
2013-02-05 05:55:00,33.7,9.4,29.86,SW,225,0.0,1.1,36,0.00,,,0.00,WUHU216HW,2013-02-05 12:55:00,
2013-02-05 06:00:00,33.5,9.8,29.86,SW,225,0.4,1.1,37,0.00,,,0.00,WUHU216HW,2013-02-05 13:00:00,
2013-02-05 06:05:00,33.5,9.8,29.86,SSE,158,1.8,1.8,37,0.00,,,0.00,WUHU216HW,2013-02-05 13:05:00,
2013-02-05 06:10:00,33.5,9.8,29.86,SW,225,0.0,1.8,37,0.00,,,0.00,WUHU216HW,2013-02-05 13:10:00,
2013-02-05 06:15:00,33.3,9.7,29.86,WSW,248,0.0,1.8,37,0.00,,,0.00,WUHU216HW,2013-02-05 13:15:00,
2013-02-05 06:20:00,33.1,10.2,29.86,WSW,248,0.9,0.9,38,0.00,,,0.00,WUHU216HW,2013-02-05 13:20:00,
2013-02-05 06:25:00,33.3,10.4,29.86,WSW,248,0.0,0.9,38,0.00,,,0.00,WUHU216HW,2013-02-05 13:25:00,
2013-02-05 06:30:00,33.1,10.2,29.87,WSW,248,0.0,0.2,38,0.00,,,0.00,WUHU216HW,2013-02-05 13:30:00,
2013-02-05 06:35:00,32.9,10.0,29.87,SW,225,0.4,0.4,38,0.00,,,0.00,WUHU216HW,2013-02-05 13:35:00,
2013-02-05 06:40:00,32.8,10.4,29.87,South,180,0.4,1.1,39,0.00,,,0.00,WUHU216HW,2013-02-05 13:40:00,
2013-02-05 06:45:00,32.8,10.4,29.87,SW,225,0.0,1.1,39,0.00,,,0.00,WUHU216HW,2013-02-05 13:45:00,
2013-02-05 06:50:00,32.8,10.4,29.87,SW,225,0.0,0.2,39,0.00,,,0.00,WUHU216HW,2013-02-05 13:50:00,
2013-02-05 06:55:00,32.6,10.3,29.87,SW,225,0.0,0.2,39,0.00,,,0.00,WUHU216HW,2013-02-05 13:55:00,
2013-02-05 07:00:00,32.6,10.3,29.87,SW,225,0.0,0.2,39,0.00,,,0.00,WUHU216HW,2013-02-05 14:00:00,
2013-02-05 07:05:00,32.4,10.2,29.87,SW,225,0.0,0.2,39,0.00,,,0.00,WUHU216HW,2013-02-05 14:05:00,
2013-02-05 07:10:00,32.2,10.0,29.88,South,180,0.0,0.4,39,0.00,,,0.00,WUHU216HW,2013-02-05 14:10:00,
2013-02-05 07:15:00,31.9,9.6,29.87,SSW,203,0.0,0.4,39,0.00,,,0.00,WUHU216HW,2013-02-05 14:15:00,
2013-02-05 07:20:00,31.7,9.5,29.88,SSW,203,0.0,0.0,39,0.00,,,0.00,WUHU216HW,2013-02-05 14:20:00,
2013-02-05 07:25:00,31.7,9.5,29.88,SE,135,0.0,0.0,39,0.00,,,0.00,WUHU216HW,2013-02-05 14:25:00,
2013-02-05 07:30:00,31.7,10.1,29.88,SW,225,0.0,0.4,40,0.00,,,0.00,WUHU216HW,2013-02-05 14:30:00,
2013-02-05 07:35:00,31.7,10.1,29.89,SSE,158,1.8,1.8,40,0.00,,,0.00,WUHU216HW,2013-02-05 14:35:00,
2013-02-05 07:40:00,31.7,10.1,29.89,South,180,0.0,1.8,40,0.00,,,0.00,WUHU216HW,2013-02-05 14:40:00,
2013-02-05 07:45:00,31.9,10.3,29.89,SSE,158,1.1,1.3,40,0.00,,,0.00,WUHU216HW,2013-02-05 14:45:00,
2013-02-05 07:50:00,32.0,10.4,29.89,SSE,158,0.0,1.1,40,0.00,,,0.00,WUHU216HW,2013-02-05 14:50:00,
2013-02-05 07:55:00,32.4,11.3,29.89,SSE,158,1.6,1.6,41,0.00,,,0.00,WUHU216HW,2013-02-05 14:55:00,
2013-02-05 08:00:00,32.8,12.1,29.89,SE,135,0.4,1.6,42,0.00,,,0.00,WUHU216HW,2013-02-05 15:00:00,
2013-02-05 08:05:00,32.9,12.2,29.90,SSE,158,0.0,1.1,42,0.00,,,0.00,WUHU216HW,2013-02-05 15:05:00,
2013-02-05 08:10:00,33.7,12.9,29.90,SSE,158,0.2,0.4,42,0.00,,,0.00,WUHU216HW,2013-02-05 15:10:00,
2013-02-05 08:15:00,34.6,13.8,29.90,SSE,158,0.4,0.7,42,0.00,,,0.00,WUHU216HW,2013-02-05 15:15:00,
2013-02-05 08:20:00,35.5,14.1,29.89,SSE,158,0.4,0.7,41,0.00,,,0.00,WUHU216HW,2013-02-05 15:20:00,
2013-02-05 08:25:00,36.4,14.9,29.90,East,90,0.7,1.1,41,0.00,,,0.00,WUHU216HW,2013-02-05 15:25:00,
2013-02-05 08:30:00,37.4,15.3,29.90,NNE,23,0.9,2.0,40,0.00,,,0.00,WUHU216HW,2013-02-05 15:30:00,
2013-02-05 08:35:00,38.3,16.1,29.89,North,0,0.0,2.0,40,0.00,,,0.00,WUHU216HW,2013-02-05 15:35:00,
2013-02-05 08:40:00,39.2,16.3,29.89,South,180,2.5,3.4,39,0.00,,,0.00,WUHU216HW,2013-02-05 15:40:00,
2013-02-05 08:45:00,40.1,16.5,29.89,SE,135,1.6,3.4,38,0.00,,,0.00,WUHU216HW,2013-02-05 15:45:00,
2013-02-05 08:50:00,41.0,16.6,29.90,South,180,1.1,2.5,37,0.00,,,0.00,WUHU216HW,2013-02-05 15:50:00,
2013-02-05 08:55:00,41.6,16.4,29.89,South,180,0.9,2.5,36,0.00,,,0.00,WUHU216HW,2013-02-05 15:55:00,
2013-02-05 09:00:00,42.1,16.2,29.89,ESE,113,2.5,2.5,35,0.00,,,0.00,WUHU216HW,2013-02-05 16:00:00,
2013-02-05 09:05:00,42.3,15.0,29.89,ESE,113,1.1,4.3,33,0.00,,,0.00,WUHU216HW,2013-02-05 16:05:00,
2013-02-05 09:10:00,42.5,15.2,29.89,ESE,113,3.6,4.3,33,0.00,,,0.00,WUHU216HW,2013-02-05 16:10:00,
2013-02-05 09:15:00,42.7,15.4,29.89,NNW,338,0.4,3.6,33,0.00,,,0.00,WUHU216HW,2013-02-05 16:15:00,
2013-02-05 09:20:00,42.8,15.5,29.89,NE,45,1.1,2.2,33,0.00,,,0.00,WUHU216HW,2013-02-05 16:20:00,
2013-02-05 09:25:00,43.2,15.9,29.89,East,90,1.8,2.2,33,0.00,,,0.00,WUHU216HW,2013-02-05 16:25:00,
2013-02-05 09:30:00,43.4,16.7,29.89,ESE,113,0.4,2.2,34,0.00,,,0.00,WUHU216HW,2013-02-05 16:30:00,
2013-02-05 09:35:00,43.6,16.1,29.89,ESE,113,1.3,1.8,33,0.00,,,0.00,WUHU216HW,2013-02-05 16:35:00,
2013-02-05 09:40:00,43.6,16.1,29.89,ESE,113,0.9,1.8,33,0.00,,,0.00,WUHU216HW,2013-02-05 16:40:00,
2013-02-05 09:45:00,43.6,16.1,29.89,ESE,113,1.1,1.8,33,0.00,,,0.00,WUHU216HW,2013-02-05 16:45:00,
2013-02-05 09:50:00,43.9,16.5,29.89,SW,225,0.4,1.6,33,0.00,,,0.00,WUHU216HW,2013-02-05 16:50:00,
2013-02-05 09:55:00,44.3,16.8,29.89,SW,225,0.0,1.1,33,0.00,,,0.00,WUHU216HW,2013-02-05 16:55:00,
2013-02-05 10:00:00,44.6,17.1,29.89,SE,135,0.7,0.9,33,0.00,,,0.00,WUHU216HW,2013-02-05 17:00:00,
2013-02-05 10:05:00,45.0,16.7,29.90,NNE,23,0.0,0.9,32,0.00,,,0.00,WUHU216HW,2013-02-05 17:05:00,
2013-02-05 10:10:00,45.2,16.9,29.89,East,90,0.0,1.1,32,0.00,,,0.00,WUHU216HW,2013-02-05 17:10:00,
2013-02-05 10:15:00,45.5,17.3,29.90,SE,135,0.9,1.1,32,0.00,,,0.00,WUHU216HW,2013-02-05 17:15:00,
2013-02-05 10:20:00,45.9,16.9,29.90,ENE,68,0.9,1.6,31,0.00,,,0.00,WUHU216HW,2013-02-05 17:20:00,
2013-02-05 10:25:00,45.7,16.7,29.90,ENE,68,1.1,2.5,31,0.00,,,0.00,WUHU216HW,2013-02-05 17:25:00,
2013-02-05 10:30:00,45.5,16.6,29.90,NNE,23,1.8,2.5,31,0.00,,,0.00,WUHU216HW,2013-02-05 17:30:00,
2013-02-05 10:35:00,45.7,17.5,29.90,NNW,338,0.0,2.2,32,0.00,,,0.00,WUHU216HW,2013-02-05 17:35:00,
2013-02-05 10:40:00,46.8,18.4,29.90,SSE,158,3.6,3.6,32,0.00,,,0.00,WUHU216HW,2013-02-05 17:40:00,
2013-02-05 10:45:00,48.2,19.0,29.90,ESE,113,2.2,3.6,31,0.00,,,0.00,WUHU216HW,2013-02-05 17:45:00,
2013-02-05 10:50:00,47.9,17.1,29.91,SE,135,1.1,3.4,29,0.00,,,0.00,WUHU216HW,2013-02-05 17:50:00,
2013-02-05 10:55:00,47.2,17.4,29.91,NE,45,2.5,5.1,30,0.00,,,0.00,WUHU216HW,2013-02-05 17:55:00,
2013-02-05 11:00:00,46.4,16.7,29.91,SSE,158,0.9,5.1,30,0.00,,,0.00,WUHU216HW,2013-02-05 18:00:00,
2013-02-05 11:05:00,46.8,17.7,29.91,North,0,3.4,3.4,31,0.00,,,0.00,WUHU216HW,2013-02-05 18:05:00,
2013-02-05 11:10:00,46.6,17.6,29.91,NNE,23,2.0,4.0,31,0.00,,,0.00,WUHU216HW,2013-02-05 18:10:00,
2013-02-05 11:15:00,46.4,17.4,29.91,NE,45,3.1,4.9,31,0.00,,,0.00,WUHU216HW,2013-02-05 18:15:00,
2013-02-05 11:20:00,46.6,17.6,29.90,WNW,293,2.9,6.0,31,0.00,,,0.00,WUHU216HW,2013-02-05 18:20:00,
2013-02-05 11:25:00,47.0,17.9,29.90,ESE,113,4.7,6.0,31,0.00,,,0.00,WUHU216HW,2013-02-05 18:25:00,
2013-02-05 11:30:00,47.5,18.4,29.90,ESE,113,2.7,4.7,31,0.00,,,0.00,WUHU216HW,2013-02-05 18:30:00,
2013-02-05 11:35:00,47.2,17.4,29.89,ESE,113,2.9,3.4,30,0.00,,,0.00,WUHU216HW,2013-02-05 18:35:00,
2013-02-05 11:40:00,46.6,17.6,29.89,SE,135,1.8,3.1,31,0.00,,,0.00,WUHU216HW,2013-02-05 18:40:00,
2013-02-05 11:45:00,46.1,17.1,29.89,SSE,158,1.1,4.9,31,0.00,,,0.00,WUHU216HW,2013-02-05 18:45:00,
2013-02-05 11:50:00,45.7,17.5,29.89,SSE,158,0.4,4.9,32,0.00,,,0.00,WUHU216HW,2013-02-05 18:50:00,
2013-02-05 11:55:00,45.5,17.3,29.89,ESE,113,0.2,4.0,32,0.00,,,0.00,WUHU216HW,2013-02-05 18:55:00,
2013-02-05 12:00:00,45.9,17.6,29.89,ENE,68,0.2,1.3,32,0.00,,,0.00,WUHU216HW,2013-02-05 19:00:00,
2013-02-05 12:05:00,46.1,17.7,29.88,ESE,113,0.4,2.9,32,0.00,,,0.00,WUHU216HW,2013-02-05 19:05:00,
2013-02-05 12:10:00,45.7,17.5,29.87,SE,135,0.2,3.4,32,0.00,,,0.00,WUHU216HW,2013-02-05 19:10:00,
2013-02-05 12:15:00,46.3,17.9,29.87,South,180,3.8,3.8,32,0.00,,,0.00,WUHU216HW,2013-02-05 19:15:00,
2013-02-05 12:20:00,47.0,17.9,29.86,North,0,1.3,3.8,31,0.00,,,0.00,WUHU216HW,2013-02-05 19:20:00,
2013-02-05 12:25:00,46.6,17.6,29.86,NNW,338,0.2,4.0,31,0.00,,,0.00,WUHU216HW,2013-02-05 19:25:00,
2013-02-05 12:30:00,46.8,17.7,29.86,SE,135,1.1,4.0,31,0.00,,,0.00,WUHU216HW,2013-02-05 19:30:00,
2013-02-05 12:35:00,47.2,18.1,29.85,South,180,2.9,4.0,31,0.00,,,0.00,WUHU216HW,2013-02-05 19:35:00,
2013-02-05 12:40:00,47.2,18.1,29.85,ESE,113,1.8,4.7,31,0.00,,,0.00,WUHU216HW,2013-02-05 19:40:00,
2013-02-05 12:45:00,47.2,18.1,29.84,SSE,158,4.9,4.9,31,0.00,,,0.00,WUHU216HW,2013-02-05 19:45:00,
2013-02-05 12:50:00,47.2,18.1,29.84,West,270,0.9,4.9,31,0.00,,,0.00,WUHU216HW,2013-02-05 19:50:00,
2013-02-05 12:55:00,47.3,18.2,29.84,ESE,113,0.7,4.0,31,0.00,,,0.00,WUHU216HW,2013-02-05 19:55:00,
2013-02-05 13:00:00,47.5,18.4,29.84,SSE,158,3.8,4.9,31,0.00,,,0.00,WUHU216HW,2013-02-05 20:00:00,
2013-02-05 13:05:00,47.9,18.0,29.83,SE,135,2.2,4.9,30,0.00,,,0.00,WUHU216HW,2013-02-05 20:05:00,
2013-02-05 13:10:00,47.9,18.0,29.83,ESE,113,1.8,3.4,30,0.00,,,0.00,WUHU216HW,2013-02-05 20:10:00,
2013-02-05 13:15:00,47.7,17.9,29.83,NE,45,2.5,2.5,30,0.00,,,0.00,WUHU216HW,2013-02-05 20:15:00,
2013-02-05 13:20:00,47.9,18.7,29.82,North,0,0.9,2.5,31,0.00,,,0.00,WUHU216HW,2013-02-05 20:20:00,
2013-02-05 13:25:00,48.1,18.9,29.82,ESE,113,2.0,2.5,31,0.00,,,0.00,WUHU216HW,2013-02-05 20:25:00,
2013-02-05 13:30:00,48.2,18.4,29.82,ENE,68,2.5,2.5,30,0.00,,,0.00,WUHU216HW,2013-02-05 20:30:00,
2013-02-05 13:35:00,48.2,18.4,29.82,East,90,1.8,3.4,30,0.00,,,0.00,WUHU216HW,2013-02-05 20:35:00,
2013-02-05 13:40:00,48.6,18.6,29.82,ESE,113,1.8,3.4,30,0.00,,,0.00,WUHU216HW,2013-02-05 20:40:00,
2013-02-05 13:45:00,48.6,18.6,29.81,East,90,2.7,3.4,30,0.00,,,0.00,WUHU216HW,2013-02-05 20:45:00,
2013-02-05 13:50:00,49.0,18.9,29.81,North,0,0.0,3.4,30,0.00,,,0.00,WUHU216HW,2013-02-05 20:50:00,
2013-02-05 13:55:00,49.7,19.5,29.81,ESE,113,0.7,2.0,30,0.00,,,0.00,WUHU216HW,2013-02-05 20:55:00,
2013-02-05 14:00:00,50.2,20.0,29.81,NE,45,1.1,2.0,30,0.00,,,0.00,WUHU216HW,2013-02-05 21:00:00,
2013-02-05 14:05:00,50.8,19.5,29.80,South,180,2.9,2.9,29,0.00,,,0.00,WUHU216HW,2013-02-05 21:05:00,
2013-02-05 14:10:00,50.8,19.5,29.80,SE,135,2.9,2.9,29,0.00,,,0.00,WUHU216HW,2013-02-05 21:10:00,
2013-02-05 14:15:00,50.9,19.7,29.80,NNE,23,2.9,2.9,29,0.00,,,0.00,WUHU216HW,2013-02-05 21:15:00,
2013-02-05 14:20:00,51.1,19.8,29.80,WSW,248,0.7,4.0,29,0.00,,,0.00,WUHU216HW,2013-02-05 21:20:00,
2013-02-05 14:25:00,51.3,20.0,29.80,SSE,158,1.1,4.0,29,0.00,,,0.00,WUHU216HW,2013-02-05 21:25:00,
2013-02-05 14:30:00,51.5,20.2,29.80,ESE,113,0.2,2.5,29,0.00,,,0.00,WUHU216HW,2013-02-05 21:30:00,
2013-02-05 14:35:00,51.7,19.4,29.80,North,0,1.1,2.2,28,0.00,,,0.00,WUHU216HW,2013-02-05 21:35:00,
2013-02-05 14:40:00,51.8,19.5,29.80,NNE,23,1.6,2.2,28,0.00,,,0.00,WUHU216HW,2013-02-05 21:40:00,
2013-02-05 14:45:00,52.0,19.7,29.80,NNE,23,0.9,2.2,28,0.00,,,0.00,WUHU216HW,2013-02-05 21:45:00,
2013-02-05 14:50:00,52.0,19.7,29.80,NNW,338,0.4,2.2,28,0.00,,,0.00,WUHU216HW,2013-02-05 21:50:00,
2013-02-05 14:55:00,52.2,19.9,29.80,SE,135,0.0,1.6,28,0.00,,,0.00,WUHU216HW,2013-02-05 21:55:00,
2013-02-05 15:00:00,52.4,20.0,29.80,SE,135,2.2,3.6,28,0.00,,,0.00,WUHU216HW,2013-02-05 22:00:00,
2013-02-05 15:05:00,52.4,20.0,29.80,SSE,158,0.0,3.6,28,0.00,,,0.00,WUHU216HW,2013-02-05 22:05:00,
2013-02-05 15:10:00,52.4,20.0,29.80,West,270,1.1,2.2,28,0.00,,,0.00,WUHU216HW,2013-02-05 22:10:00,
2013-02-05 15:15:00,52.4,20.0,29.80,SSE,158,0.4,1.1,28,0.00,,,0.00,WUHU216HW,2013-02-05 22:15:00,
2013-02-05 15:20:00,52.4,20.0,29.80,ESE,113,1.3,1.3,28,0.00,,,0.00,WUHU216HW,2013-02-05 22:20:00,
2013-02-05 15:25:00,52.0,19.7,29.80,WNW,293,1.1,3.1,28,0.00,,,0.00,WUHU216HW,2013-02-05 22:25:00,
2013-02-05 15:30:00,52.0,19.7,29.80,South,180,0.0,3.1,28,0.00,,,0.00,WUHU216HW,2013-02-05 22:30:00,
2013-02-05 15:35:00,51.8,19.5,29.80,South,180,0.0,2.0,28,0.00,,,0.00,WUHU216HW,2013-02-05 22:35:00,
2013-02-05 15:40:00,52.0,19.7,29.80,SW,225,1.1,1.1,28,0.00,,,0.00,WUHU216HW,2013-02-05 22:40:00,
2013-02-05 15:45:00,52.2,19.9,29.79,SSE,158,0.9,1.1,28,0.00,,,0.00,WUHU216HW,2013-02-05 22:45:00,
2013-02-05 15:50:00,52.2,19.9,29.79,WNW,293,0.4,1.1,28,0.00,,,0.00,WUHU216HW,2013-02-05 22:50:00,
2013-02-05 15:55:00,52.2,19.9,29.79,WNW,293,0.4,1.1,28,0.00,,,0.00,WUHU216HW,2013-02-05 22:55:00,
2013-02-05 16:00:00,52.2,19.9,29.79,NE,45,1.1,1.1,28,0.00,,,0.00,WUHU216HW,2013-02-05 23:00:00,
2013-02-05 16:05:00,52.2,19.9,29.79,NE,45,0.9,1.1,28,0.00,,,0.00,WUHU216HW,2013-02-05 23:05:00,
2013-02-05 16:10:00,51.8,19.5,29.79,ESE,113,0.9,1.8,28,0.00,,,0.00,WUHU216HW,2013-02-05 23:10:00,
2013-02-05 16:15:00,51.5,19.3,29.78,NE,45,1.8,2.0,28,0.00,,,0.00,WUHU216HW,2013-02-05 23:15:00,
2013-02-05 16:20:00,51.5,19.3,29.78,NE,45,0.4,2.0,28,0.00,,,0.00,WUHU216HW,2013-02-05 23:20:00,
2013-02-05 16:25:00,51.5,19.3,29.79,WSW,248,1.1,1.1,28,0.00,,,0.00,WUHU216HW,2013-02-05 23:25:00,
2013-02-05 16:30:00,51.5,19.3,29.79,WSW,248,0.7,1.1,28,0.00,,,0.00,WUHU216HW,2013-02-05 23:30:00,
2013-02-05 16:35:00,51.5,19.3,29.78,West,270,0.4,0.7,28,0.00,,,0.00,WUHU216HW,2013-02-05 23:35:00,
2013-02-05 16:40:00,51.5,19.3,29.78,SSE,158,1.6,1.6,28,0.00,,,0.00,WUHU216HW,2013-02-05 23:40:00,
2013-02-05 16:45:00,51.5,19.3,29.78,WSW,248,0.9,1.6,28,0.00,,,0.00,WUHU216HW,2013-02-05 23:45:00,
2013-02-05 16:50:00,51.3,19.1,29.78,SW,225,0.4,1.1,28,0.00,,,0.00,WUHU216HW,2013-02-05 23:50:00,
2013-02-05 16:55:00,51.1,18.9,29.77,SSE,158,0.2,1.8,28,0.00,,,0.00,WUHU216HW,2013-02-05 23:55:00,
2013-02-05 17:00:00,50.9,19.7,29.77,SW,225,0.4,1.8,29,0.00,,,0.00,WUHU216HW,2013-02-06 00:00:00,
2013-02-05 17:05:00,50.8,19.5,29.77,WSW,248,0.0,1.8,29,0.00,,,0.00,WUHU216HW,2013-02-06 00:05:00,
2013-02-05 17:10:00,50.6,19.4,29.77,WSW,248,0.9,0.9,29,0.00,,,0.00,WUHU216HW,2013-02-06 00:10:00,
2013-02-05 17:15:00,50.4,19.2,29.77,WSW,248,0.9,0.9,29,0.00,,,0.00,WUHU216HW,2013-02-06 00:15:00,
2013-02-05 17:20:00,50.0,18.9,29.77,WSW,248,0.0,0.9,29,0.00,,,0.00,WUHU216HW,2013-02-06 00:20:00,
2013-02-05 17:25:00,49.9,19.6,29.77,South,180,0.7,1.6,30,0.00,,,0.00,WUHU216HW,2013-02-06 00:25:00,
2013-02-05 17:30:00,49.7,19.5,29.77,South,180,0.0,1.6,30,0.00,,,0.00,WUHU216HW,2013-02-06 00:30:00,
2013-02-05 17:35:00,49.3,19.3,29.77,West,270,0.4,1.1,30,0.00,,,0.00,WUHU216HW,2013-02-06 00:35:00,
2013-02-05 17:40:00,49.0,18.9,29.77,SSE,158,0.9,1.1,30,0.00,,,0.00,WUHU216HW,2013-02-06 00:40:00,
2013-02-05 17:45:00,48.8,18.8,29.77,SSE,158,0.2,0.9,30,0.00,,,0.00,WUHU216HW,2013-02-06 00:45:00,
2013-02-05 17:50:00,48.6,18.6,29.77,SSE,158,0.0,0.2,30,0.00,,,0.00,WUHU216HW,2013-02-06 00:50:00,
2013-02-05 17:55:00,48.2,19.0,29.78,NNW,338,0.2,2.5,31,0.00,,,0.00,WUHU216HW,2013-02-06 00:55:00,
2013-02-05 18:00:00,48.1,18.9,29.78,West,270,0.4,2.5,31,0.00,,,0.00,WUHU216HW,2013-02-06 01:00:00,
2013-02-05 18:05:00,47.9,18.7,29.78,WSW,248,0.0,1.1,31,0.00,,,0.00,WUHU216HW,2013-02-06 01:05:00,
2013-02-05 18:10:00,47.9,18.7,29.78,NW,315,0.2,2.2,31,0.00,,,0.00,WUHU216HW,2013-02-06 01:10:00,
2013-02-05 18:15:00,47.5,18.4,29.78,West,270,1.6,2.2,31,0.00,,,0.00,WUHU216HW,2013-02-06 01:15:00,
2013-02-05 18:20:00,47.3,18.2,29.78,WSW,248,0.0,1.6,31,0.00,,,0.00,WUHU216HW,2013-02-06 01:20:00,
2013-02-05 18:25:00,47.2,18.1,29.77,West,270,0.0,1.1,31,0.00,,,0.00,WUHU216HW,2013-02-06 01:25:00,
2013-02-05 18:30:00,47.0,17.9,29.78,WSW,248,0.4,0.4,31,0.00,,,0.00,WUHU216HW,2013-02-06 01:30:00,
2013-02-05 18:35:00,46.6,17.6,29.78,SW,225,0.0,0.4,31,0.00,,,0.00,WUHU216HW,2013-02-06 01:35:00,
2013-02-05 18:40:00,46.4,18.1,29.78,SW,225,0.0,0.4,32,0.00,,,0.00,WUHU216HW,2013-02-06 01:40:00,
2013-02-05 18:45:00,46.1,17.7,29.78,SW,225,0.2,0.4,32,0.00,,,0.00,WUHU216HW,2013-02-06 01:45:00,
2013-02-05 18:50:00,45.9,17.6,29.78,SW,225,0.0,0.4,32,0.00,,,0.00,WUHU216HW,2013-02-06 01:50:00,
2013-02-05 18:55:00,45.7,17.5,29.78,SSE,158,0.0,1.3,32,0.00,,,0.00,WUHU216HW,2013-02-06 01:55:00,
2013-02-05 19:00:00,45.4,17.7,29.78,SW,225,0.2,1.3,33,0.00,,,0.00,WUHU216HW,2013-02-06 02:00:00,
2013-02-05 19:05:00,45.2,17.7,29.78,SSW,203,0.4,1.1,33,0.00,,,0.00,WUHU216HW,2013-02-06 02:05:00,
2013-02-05 19:10:00,45.0,17.5,29.78,WSW,248,0.0,1.1,33,0.00,,,0.00,WUHU216HW,2013-02-06 02:10:00,
2013-02-05 19:15:00,45.0,17.5,29.78,SSE,158,1.3,1.3,33,0.00,,,0.00,WUHU216HW,2013-02-06 02:15:00,
2013-02-05 19:20:00,44.6,17.1,29.78,SSW,203,0.0,1.3,33,0.00,,,0.00,WUHU216HW,2013-02-06 02:20:00,
2013-02-05 19:25:00,44.5,16.9,29.78,WSW,248,0.0,1.1,33,0.00,,,0.00,WUHU216HW,2013-02-06 02:25:00,
2013-02-05 19:30:00,44.3,16.8,29.77,WSW,248,1.1,1.1,33,0.00,,,0.00,WUHU216HW,2013-02-06 02:30:00,
2013-02-05 19:35:00,44.3,16.8,29.77,South,180,0.4,1.1,33,0.00,,,0.00,WUHU216HW,2013-02-06 02:35:00,
2013-02-05 19:40:00,44.1,16.7,29.77,SSW,203,0.0,0.9,33,0.00,,,0.00,WUHU216HW,2013-02-06 02:40:00,
2013-02-05 19:45:00,43.9,17.1,29.77,WSW,248,1.1,1.6,34,0.00,,,0.00,WUHU216HW,2013-02-06 02:45:00,
2013-02-05 19:50:00,43.6,17.5,29.77,WSW,248,0.2,1.6,35,0.00,,,0.00,WUHU216HW,2013-02-06 02:50:00,
2013-02-05 19:55:00,43.6,17.5,29.77,SW,225,0.4,1.3,35,0.00,,,0.00,WUHU216HW,2013-02-06 02:55:00,
2013-02-05 20:00:00,43.4,17.3,29.77,SW,225,0.7,1.1,35,0.00,,,0.00,WUHU216HW,2013-02-06 03:00:00,
2013-02-05 20:05:00,43.4,17.3,29.77,WSW,248,0.2,1.3,35,0.00,,,0.00,WUHU216HW,2013-02-06 03:05:00,
2013-02-05 20:10:00,43.2,17.2,29.77,WSW,248,0.0,1.3,35,0.00,,,0.00,WUHU216HW,2013-02-06 03:10:00,
2013-02-05 20:15:00,43.0,17.0,29.77,WSW,248,0.0,1.1,35,0.00,,,0.00,WUHU216HW,2013-02-06 03:15:00,
2013-02-05 20:20:00,43.0,17.0,29.76,South,180,0.0,0.7,35,0.00,,,0.00,WUHU216HW,2013-02-06 03:20:00,
2013-02-05 20:25:00,42.8,17.5,29.77,SW,225,0.2,0.7,36,0.00,,,0.00,WUHU216HW,2013-02-06 03:25:00,
2013-02-05 20:30:00,42.8,16.8,29.77,SSW,203,0.0,0.4,35,0.00,,,0.00,WUHU216HW,2013-02-06 03:30:00,
2013-02-05 20:35:00,42.8,17.5,29.77,WSW,248,0.0,0.7,36,0.00,,,0.00,WUHU216HW,2013-02-06 03:35:00,
2013-02-05 20:40:00,42.7,17.4,29.77,WSW,248,0.0,0.7,36,0.00,,,0.00,WUHU216HW,2013-02-06 03:40:00,
2013-02-05 20:45:00,42.7,17.4,29.77,SSE,158,0.9,0.9,36,0.00,,,0.00,WUHU216HW,2013-02-06 03:45:00,
2013-02-05 20:50:00,42.5,17.2,29.77,WSW,248,0.4,0.9,36,0.00,,,0.00,WUHU216HW,2013-02-06 03:50:00,
2013-02-05 20:55:00,42.1,16.9,29.76,SW,225,0.4,1.1,36,0.00,,,0.00,WUHU216HW,2013-02-06 03:55:00,
2013-02-05 21:00:00,42.1,16.9,29.76,SSW,203,0.0,1.1,36,0.00,,,0.00,WUHU216HW,2013-02-06 04:00:00,
2013-02-05 21:05:00,42.1,16.9,29.76,WSW,248,0.0,0.4,36,0.00,,,0.00,WUHU216HW,2013-02-06 04:05:00,
2013-02-05 21:10:00,41.9,17.4,29.76,SW,225,0.0,1.1,37,0.00,,,0.00,WUHU216HW,2013-02-06 04:10:00,
2013-02-05 21:15:00,41.9,17.4,29.76,SW,225,0.0,1.1,37,0.00,,,0.00,WUHU216HW,2013-02-06 04:15:00,
2013-02-05 21:20:00,41.8,17.2,29.76,WSW,248,0.4,0.4,37,0.00,,,0.00,WUHU216HW,2013-02-06 04:20:00,
2013-02-05 21:26:00,41.9,17.4,29.76,West,270,0.2,0.7,37,0.00,,,0.00,WUHU216HW,2013-02-06 04:26:00,
2013-02-05 21:31:00,42.1,17.6,29.76,SSW,203,0.0,0.7,37,0.00,,,0.00,WUHU216HW,2013-02-06 04:31:00,
2013-02-05 21:36:00,42.1,17.6,29.76,SSE,158,0.4,0.9,37,0.00,,,0.00,WUHU216HW,2013-02-06 04:36:00,
2013-02-05 21:41:00,42.1,17.6,29.76,South,180,0.0,0.9,37,0.00,,,0.00,WUHU216HW,2013-02-06 04:41:00,
2013-02-05 21:46:00,42.1,17.6,29.76,SW,225,1.1,1.1,37,0.00,,,0.00,WUHU216HW,2013-02-06 04:46:00,
2013-02-05 21:51:00,42.1,17.6,29.76,SW,225,0.0,1.1,37,0.00,,,0.00,WUHU216HW,2013-02-06 04:51:00,
2013-02-05 21:56:00,42.1,17.6,29.76,SW,225,0.0,0.4,37,0.00,,,0.00,WUHU216HW,2013-02-06 04:56:00,
2013-02-05 22:00:00,42.1,17.6,29.76,SW,225,0.0,0.0,37,0.00,,,0.00,WUHU216HW,2013-02-06 05:00:00,
2013-02-05 22:05:00,42.1,18.2,29.76,SW,225,0.0,0.4,38,0.00,,,0.00,WUHU216HW,2013-02-06 05:05:00,
2013-02-05 22:10:00,42.1,18.2,29.76,SW,225,0.7,0.7,38,0.00,,,0.00,WUHU216HW,2013-02-06 05:10:00,
2013-02-05 22:15:00,41.9,18.0,29.75,SW,225,0.9,1.8,38,0.00,,,0.00,WUHU216HW,2013-02-06 05:15:00,
2013-02-05 22:20:00,41.8,17.9,29.75,WSW,248,0.4,1.8,38,0.00,,,0.00,WUHU216HW,2013-02-06 05:20:00,
2013-02-05 22:25:00,41.8,17.9,29.75,WSW,248,0.4,1.1,38,0.00,,,0.00,WUHU216HW,2013-02-06 05:25:00,
2013-02-05 22:30:00,41.6,18.4,29.74,WSW,248,0.0,0.7,39,0.00,,,0.00,WUHU216HW,2013-02-06 05:30:00,
2013-02-05 22:35:00,41.4,18.2,29.75,WSW,248,0.0,0.7,39,0.00,,,0.00,WUHU216HW,2013-02-06 05:35:00,
2013-02-05 22:40:00,41.4,18.2,29.75,WSW,248,0.0,0.0,39,0.00,,,0.00,WUHU216HW,2013-02-06 05:40:00,
2013-02-05 22:45:00,41.4,18.2,29.75,SE,135,0.0,1.1,39,0.00,,,0.00,WUHU216HW,2013-02-06 05:45:00,
2013-02-05 22:50:00,41.2,18.1,29.75,SW,225,0.0,1.1,39,0.00,,,0.00,WUHU216HW,2013-02-06 05:50:00,
2013-02-05 22:55:00,41.2,18.1,29.75,SSE,158,1.1,1.6,39,0.00,,,0.00,WUHU216HW,2013-02-06 05:55:00,
2013-02-05 23:00:00,41.2,18.1,29.75,SSW,203,0.0,1.6,39,0.00,,,0.00,WUHU216HW,2013-02-06 06:00:00,
2013-02-05 23:05:00,41.0,17.9,29.74,SSW,203,0.9,0.9,39,0.00,,,0.00,WUHU216HW,2013-02-06 06:05:00,
2013-02-05 23:10:00,41.0,18.5,29.74,SW,225,0.0,1.1,40,0.00,,,0.00,WUHU216HW,2013-02-06 06:10:00,
2013-02-05 23:15:00,40.9,18.4,29.74,North,0,0.0,1.1,40,0.00,,,0.00,WUHU216HW,2013-02-06 06:15:00,
2013-02-05 23:20:00,40.7,18.2,29.74,SSE,158,0.9,2.2,40,0.00,,,0.00,WUHU216HW,2013-02-06 06:20:00,
2013-02-05 23:25:00,40.7,18.2,29.74,SSE,158,0.0,2.2,40,0.00,,,0.00,WUHU216HW,2013-02-06 06:25:00,
2013-02-05 23:30:00,40.7,19.3,29.74,WSW,248,0.2,1.6,42,0.00,,,0.00,WUHU216HW,2013-02-06 06:30:00,
2013-02-05 23:35:00,40.7,18.7,29.74,WSW,248,0.7,1.6,41,0.00,,,0.00,WUHU216HW,2013-02-06 06:35:00,
2013-02-05 23:40:00,40.5,18.5,29.74,South,180,0.7,0.7,41,0.00,,,0.00,WUHU216HW,2013-02-06 06:40:00,
2013-02-05 23:45:00,40.5,18.5,29.74,South,180,0.0,0.7,41,0.00,,,0.00,WUHU216HW,2013-02-06 06:45:00,
2013-02-05 23:50:00,40.3,18.5,29.74,WSW,248,1.1,1.1,41,0.00,,,0.00,WUHU216HW,2013-02-06 06:50:00,
2013-02-05 23:55:00,40.1,18.3,29.74,SW,225,0.0,1.6,41,0.00,,,0.00,WUHU216HW,2013-02-06 06:55:00,